TELSTAR 19V (43562 NORAD) Tracking and Keplerian Element Data

This shows tracking and keplerian element data for the satellite.

Feedback or suggestion? Click here.




ElementValue
Catalog43562
NameTELSTAR 19V
Epoch Orbit141
Epoch Day322.01660484
Epoch Year2018
RAAN263.5663
Inclination0.0179
Eccentricity0.0002869
Argument of Perigee311.8014
Mean Anonmoly144.6133
Mean Motion1.00268779
Decay Rate-2.72E-06
L11 43562U 18059A 18322.01660484 -.00000272 00000-0 00000+0 0 9999
L22 43562 0.0179 263.5663 0002869 311.8014 144.6133 1.00268779 1411

Live tracking and technical data element details for TELSTAR 19V (NORAD 43562). TELSTAR 19V can be tracked NOW for your location showing map with azimuth and elevation plus other details from your city location.

Track the satellite on the map from your city or location and see movement details for azimuth, elevation, latitude, longitude, range, height, and movement on the map or in text.







IsCatalogInMostPopularTable: catalog: 43562, numindb: 206
Update: records affected: 1



GetName: 43562 TELSTAR 19V

Hit Count: updated at: Mon, 19 Nov 2018 11:59:29 GMT